West Palm Beach, FL

12:50 AM EST on November 17, 2019 (GMT -0500)
Palm Beach International

Weather History for KPBI - September, 2019

Change the Weather History Date:

Tuesday, September 24, 2019

  Actual Average Record
Temperature  
Mean Temperature 80 °F 81 °F  
Max Temperature 87 °F 88 °F 93 °F (1957)
Min Temperature 73 °F 75 °F 65 °F (1925)
Degree Days  
Heating Degree Days 0 0  
Month to date heating degree days 0 0  
Since 1 July heating degree days 0 0  
Cooling Degree Days 15 16  
Month to date cooling degree days 439 405  
Year to date cooling degree days 3605 3111  
Growing Degree Days 30 (Base 50)    
Moisture  
Dew Point 67 °F    
Average Humidity 69    
Maximum Humidity 87    
Minimum Humidity 51    
Precipitation  
Precipitation T in 0.27 in 10.40 in (1894)
Month to date precipitation 1.36 6.81  
Year to date precipitation 45.32 47.53  
Snow  
Snow 0.00 in - - ()
Month to date snowfall 0.0  
Since 1 July snowfall 0.0  
Since 1 September snowfall 0.0  
Snow Depth 0.00 in    
Sea Level Pressure  
Sea Level Pressure 29.90 in    
Wind  
Wind Speed 8 mph (NNE)    
Max Wind Speed 16 mph    
Max Gust Speed 23 mph    
Visibility 10 miles    
Events Rain    
T = Trace of Precipitation, MM = Missing Value Source: NWS Daily Summary

Daily Weather History Graph

Daily Weather History Graph

Search for Another Location

Airport or City:

Astronomy

Sep. 24, 2019 Rise Set
Actual Time 7:09 AM EDT 7:14 PM EDT
Civil Twilight 6:46 AM EDT 7:37 PM EDT
Nautical Twilight 6:19 AM EDT 8:04 PM EDT
Astronomical Twilight 5:52 AM EDT 8:31 PM EDT
Moon 2:26 AM EDT (9/24) 4:28 PM EDT (9/24)
Length of Visible Light 12h 51m
Length of Day
12h 05m
Waning Crescent, 23% of the Moon is Illuminated
Sep 24
Waning Crescent
Sep 28
New
Oct 5
First Quarter
Oct 13
Full
Oct 21
Last Quarter

Hourly Weather History & Observations

Time (EDT) Temp. Heat Index Dew Point Humidity Pressure Visibility Wind Dir Wind Speed Gust Speed Precip Events Conditions
12:53 AM 80.1 °F 81.7 °F 64.0 °F 58% 29.93 in 10.0 mi ENE 11.5 mph - N/A   Scattered Clouds
1:53 AM 79.0 °F - 64.9 °F 62% 29.91 in 10.0 mi ENE 9.2 mph - N/A   Partly Cloudy
2:53 AM 79.0 °F - 64.9 °F 62% 29.89 in 10.0 mi ENE 10.4 mph - N/A   Partly Cloudy
3:53 AM 79.0 °F - 64.0 °F 60% 29.87 in 10.0 mi NE 9.2 mph - N/A   Partly Cloudy
4:53 AM 78.1 °F - 66.0 °F 66% 29.87 in 10.0 mi East 8.1 mph - N/A   Scattered Clouds
5:53 AM 73.9 °F - 66.9 °F 79% 29.89 in 10.0 mi West 5.8 mph - N/A   Mostly Cloudy
6:53 AM 73.0 °F - 69.1 °F 87% 29.90 in 10.0 mi WNW 5.8 mph - N/A   Mostly Cloudy
7:53 AM 73.9 °F - 70.0 °F 87% 29.90 in 10.0 mi WNW 4.6 mph - N/A   Scattered Clouds
8:53 AM 77.0 °F - 70.0 °F 79% 29.93 in 10.0 mi NNW 4.6 mph - 0.00 in Rain Light Rain
9:53 AM 79.0 °F - 69.1 °F 72% 29.94 in 10.0 mi North 4.6 mph - 0.00 in   Mostly Cloudy
10:53 AM 82.0 °F 84.9 °F 68.0 °F 62% 29.94 in 10.0 mi North 8.1 mph - N/A   Mostly Cloudy
11:53 AM 82.9 °F 85.8 °F 68.0 °F 60% 29.94 in 10.0 mi NE 9.2 mph 18.4 mph N/A   Mostly Cloudy
12:53 PM 86.0 °F 90.1 °F 69.1 °F 57% 29.91 in 10.0 mi NE 13.8 mph - N/A   Scattered Clouds
1:53 PM 84.9 °F 88.2 °F 68.0 °F 57% 29.89 in 10.0 mi NE 12.7 mph - N/A   Scattered Clouds
2:53 PM 84.9 °F 88.2 °F 68.0 °F 57% 29.87 in 10.0 mi NNE 11.5 mph - N/A   Scattered Clouds
3:53 PM 86.0 °F 88.8 °F 66.9 °F 53% 29.85 in 10.0 mi NE 12.7 mph - N/A   Scattered Clouds
4:53 PM 84.9 °F 87.6 °F 66.9 °F 55% 29.85 in 10.0 mi NNE 11.5 mph - N/A   Scattered Clouds
5:53 PM 84.0 °F 85.8 °F 64.9 °F 53% 29.86 in 10.0 mi NNE 11.5 mph - N/A   Scattered Clouds
6:53 PM 82.9 °F 85.0 °F 66.0 °F 56% 29.86 in 10.0 mi NNE 11.5 mph - N/A   Scattered Clouds
7:53 PM 81.0 °F 82.5 °F 64.0 °F 56% 29.87 in 10.0 mi NNE 6.9 mph - N/A   Scattered Clouds
8:53 PM 80.1 °F 81.7 °F 64.0 °F 58% 29.89 in 10.0 mi NNE 6.9 mph - N/A   Scattered Clouds
9:53 PM 79.0 °F - 64.0 °F 60% 29.91 in 10.0 mi North 3.5 mph - N/A   Scattered Clouds
10:53 PM 78.1 °F - 64.9 °F 64% 29.92 in 10.0 mi North 4.6 mph - N/A   Partly Cloudy
11:53 PM 78.1 °F - 64.0 °F 62% 29.91 in 10.0 mi NNE 5.8 mph - N/A   Partly Cloudy